Change the Weather History Date:

Saturday, November 24, 2012

  Actual Average Record
Temperature  
Mean Temperature 78 °F -  
Max Temperature 84 °F 85 °F 91 °F (2000)
Min Temperature 73 °F 72 °F 68 °F (2003)
Cooling Degree Days 14    
Growing Degree Days 28 (Base 50)    
Moisture  
Dew Point 75 °F    
Average Humidity 84    
Maximum Humidity 100    
Minimum Humidity 68    
Precipitation  
Precipitation 0.00 in 0.20 in - ()
Sea Level Pressure  
Sea Level Pressure 29.80 in    
Wind  
Wind Speed 3 mph ()    
Max Wind Speed 14 mph    
Max Gust Speed -    
Visibility 12.0 miles    
Events      
Averages and records for this station are not official NWS values.
T = Trace of Precipitation, MM = Missing Value Source: Averaged Metar Reports

Daily Weather History Graph

Daily Weather History Graph

Search for Another Location

Airport or City:

Trip Planner

Search our weather history database for the weather conditions in past years. The results will help you decide how hot, cold, wet, or windy it might be!

Date:

Astronomy

Nov. 24, 2012 Rise Set
Actual Time 6:25 AM FJST 7:28 PM FJST
Civil Twilight 6:01 AM FJST 7:52 PM FJST
Nautical Twilight 5:34 AM FJST 8:19 PM FJST
Astronomical Twilight 5:05 AM FJST 8:48 PM FJST
Moon 3:51 PM FJST (11/24) 3:08 AM FJST (11/24)
Length of Visible Light 13h 50m
Length of Day
13h 02m
Waxing Gibbous, 81% of the Moon is Illuminated
Nov 24
Waxing Gibbous
Nov 29
Full
Dec 7
Last Quarter
Dec 13
New
Dec 20
First Quarter

Hourly Weather History & Observations

Time (FJST) Temp. Heat Index Dew Point Humidity Pressure Visibility Wind Dir Wind Speed Gust Speed Precip Events Conditions
12:00 AM 78.8 °F - 77.0 °F 94% 29.80 in 24.9 mi Calm Calm - N/A   Mostly Cloudy
1:00 AM 77 °F - 77 °F 98% 29.81 in 12 mi Calm Calm - -   Partly Cloudy
1:00 AM 77.0 °F - 77.0 °F 100% 29.80 in 24.9 mi Calm Calm - N/A   Mostly Cloudy
2:00 AM 77.0 °F - 75.2 °F 94% 29.77 in 24.9 mi Calm Calm - N/A   Mostly Cloudy
3:00 AM 77.0 °F - 75.2 °F 94% 29.74 in 24.9 mi Calm Calm - N/A   Mostly Cloudy
4:00 AM 76 °F - 75 °F 94% 29.75 in 12 mi Calm Calm - -   Partly Cloudy
4:00 AM 75.2 °F - 75.2 °F 100% 29.74 in 24.9 mi Calm Calm - N/A   Mostly Cloudy
5:00 AM 75.2 °F - 75.2 °F 100% 29.74 in 24.9 mi Calm Calm - N/A   Mostly Cloudy
6:00 AM 75.2 °F - 73.4 °F 94% 29.74 in 28.0 mi Calm Calm - N/A   Mostly Cloudy
7:00 AM 74 °F - 74 °F 98% 29.78 in 31 mi Calm Calm - -   Partly Cloudy
7:00 AM 73.4 °F - 73.4 °F 100% 29.77 in 31.1 mi Calm Calm - N/A   Scattered Clouds
8:00 AM 77.0 °F - 73.4 °F 89% 29.80 in 31.1 mi ESE 3.5 mph - N/A   Mostly Cloudy
9:00 AM 77.0 °F - 73.4 °F 89% 29.80 in 31.1 mi ESE 3.5 mph - N/A   Mostly Cloudy
10:00 AM 83 °F - 75 °F 72% 29.84 in 31 mi Calm Calm - -   Partly Cloudy
10:00 AM 84.2 °F 92.3 °F 75.2 °F 74% 29.83 in 31.1 mi Calm Calm - N/A   Mostly Cloudy
11:00 AM 84.2 °F 90.9 °F 73.4 °F 70% 29.83 in 31.1 mi West 8.1 mph - N/A   Mostly Cloudy
12:00 PM 84.2 °F 92.3 °F 75.2 °F 74% 29.83 in 31.1 mi WNW 12.7 mph - N/A   Mostly Cloudy
1:00 PM 84 °F - 76 °F 72% 29.82 in 31 mi West 13.8 mph - -   Partly Cloudy
1:00 PM 84.2 °F 94.1 °F 77.0 °F 79% 29.80 in 31.1 mi West 13.8 mph - N/A   Mostly Cloudy
2:00 PM 82.4 °F 89.5 °F 75.2 °F 79% 29.80 in 28.0 mi West 8.1 mph - N/A   Mostly Cloudy
3:00 PM 84.2 °F 92.3 °F 75.2 °F 74% 29.77 in 28.0 mi WNW 9.2 mph - N/A   Mostly Cloudy
4:00 PM 84 °F - 75 °F 68% 29.78 in 31 mi WNW 8.1 mph - -   Partly Cloudy
4:00 PM 84.2 °F 92.3 °F 75.2 °F 74% 29.77 in 31.1 mi WNW 8.1 mph - N/A   Mostly Cloudy
5:00 PM 84.2 °F 92.3 °F 75.2 °F 74% 29.77 in 31.1 mi SSW 10.4 mph - N/A   Mostly Cloudy
6:00 PM 84.2 °F 92.3 °F 75.2 °F 74% 29.80 in 31.1 mi SSW 8.1 mph - N/A   Mostly Cloudy
7:00 PM 82 °F - 74 °F 70% 29.82 in 31 mi South 8.1 mph - -   Partly Cloudy
7:00 PM 82.4 °F 88.2 °F 73.4 °F 74% 29.80 in 31.1 mi South 8.1 mph - N/A   Mostly Cloudy
8:00 PM 80.6 °F 86.2 °F 75.2 °F 84% 29.83 in 31.1 mi SSE 6.9 mph - N/A   Mostly Cloudy
9:00 PM 78.8 °F - 73.4 °F 83% 29.83 in 28.0 mi South 6.9 mph - N/A   Mostly Cloudy
10:00 PM 78 °F - 74 °F 83% 29.88 in 12 mi South 6.9 mph - -   Partly Cloudy
10:00 PM 78.8 °F - 73.4 °F 83% 29.86 in 28.0 mi South 6.9 mph - N/A   Mostly Cloudy
11:00 PM 78.8 °F - 73.4 °F 83% 29.86 in 28.0 mi South 8.1 mph - N/A   Mostly Cloudy